Find STARLINK-38122

NORAD ID: 100005 Int'l Des: 2026-160E Owner: SPXS Country: US Constellation: starlink operational

現在のビュー

3D地球を読み込み中...

About STARLINK-38122

STARLINK-38122 (NORAD 100005) is a starlink constellation satellite (v2 mini) launched Jul 14, 2026 by SPXS of US. with a mass of 575.00 kg.

次回通過

Passes for default location (London). Set your location on the main map for personalized predictions.

高度履歴

Loading altitude history...

軌道要素

1 A0005U 26160E 26228.90949771 .00189910 00000-0 13613-2 0 9990
2 A0005 69.9991 292.9722 0003845 273.5067 86.5690 15.72957550 6548
Epoch: Aug 16, 2026 • Age: 7 hours

現在のステータス

高度 367.7 km
遠地点 / 近地点 N/A
速度 7.69 km/s
衛星直下点 -52.29°S, 100.4°E
打ち上げ日 Jul 14, 2026
運用期間 34 days
タイプ internet

技術仕様

分類 Payload
質量 575.00 kg
乾燥質量 530.00 kg
総質量 575.00 kg
長さ 0.30 m
直径 4.10 m
スパン 29.00 m
形状 Box + pan
製造者 SPXS
バスタイプ Starlink V2MO
フェーズステータス In Orbit
所有者/国 SPXS/US

Most Searched